User: anonymous   Login
Location: Fort Wayne
(41.1310°N, 85.1290°W)
Time: 23:16:46
(UTC-04:00)
Language:

Meteor 2-10 Rocket - Orbit

View from above orbital plane
View from above orbital plane
View from above satellite
View from above satellite

Ground track
Ground track

The orbit data is extracted from the following two-line orbital elements,

1 14453U 83109B   17173.37419009 +.00000046 +00000-0 +13006-4 0  9994
2 14453 081.1677 101.0906 0105980 049.0391 311.9898 14.24674926748198
Epoch (UTC): 22 June 2017 08:58:50
Eccentricity: 0.0105980
inclination: 81.1677°
perigee height: 733 km
apogee height: 886 km
right ascension of ascending node: 101.0906°
argument of perigee: 49.0391°
revolutions per day: 14.24674926
mean anomaly at epoch: 311.9898°
orbit number at epoch: 74819

The dashed part of the orbit path shows where the satellite is in the earth's shadow,  

DLR